contact:dominique.lefevre@mio.osupytheas.fr, maurice.libes@osupytheas.fr, didier.mallarino@osupytheas.fr
Project:EMSO http://www.emso-fr.org/EMSO-France
Depth: 2436.0 m
Title:EMSO Ligure Ouest : Data MII capteur AQUADOPP
Date,Latitude,Longitude,X_East,Y_North,Z_Up,Amplitude_X,Amplitude_Y,Amplitude_Z,Batterie,SoundSpeed,Heading,Pitch,Roll,Pressure,TIS,Speed,Direction
, degrees North, degrees East, m.s-1, m.s-1,m.s-1, 1, 1, 1, Volt, m.s-1, degree, degree, degree, dbar, degree_C, m.s-1, degree
2024-03-31T00:04:03,42.805,6.029,0.001,-0.026,-0.022,108.0,105.0,102.0,13.4,1505.2,3.6,-0.8,1.8,2471.813,13.29,0.026,177.8
2024-03-31T00:07:03,42.805,6.029,0.012,-0.022,-0.006,106.0,106.0,103.0,13.4,1505.2,356.6,-0.8,1.8,2471.837,13.29,0.025,151.4
2024-03-31T00:10:03,42.805,6.029,0.008,-0.034,0.029,107.0,107.0,103.0,13.3,1505.2,0.0,-0.7,1.8,2471.797,13.29,0.034,166.8
2024-03-31T00:13:03,42.805,6.029,0.01,-0.043,0.004,107.0,106.0,103.0,13.4,1505.2,1.0,-0.7,1.8,2471.811,13.29,0.044,166.9
2024-03-31T00:16:03,42.805,6.029,0.008,-0.05,0.022,107.0,106.0,103.0,13.3,1505.2,4.7,-0.7,1.8,2471.785,13.29,0.05,170.9
2024-03-31T00:19:03,42.805,6.029,-0.011,-0.014,-0.012,106.0,107.0,103.0,13.4,1505.2,2.4,-0.7,1.8,2471.813,13.29,0.017,218.2
2024-03-31T00:22:03,42.805,6.029,0.03,-0.042,-0.013,107.0,105.0,104.0,13.4,1505.2,352.5,-0.8,1.8,2471.788,13.29,0.051,144.5
2024-03-31T00:25:03,42.805,6.029,0.002,-0.022,0.016,107.0,106.0,104.0,13.4,1505.2,0.0,-0.8,1.8,2471.811,13.29,0.022,174.8
2024-03-31T00:28:03,42.805,6.029,0.011,-0.036,-0.012,107.0,106.0,103.0,13.3,1505.2,4.1,-0.8,1.8,2471.776,13.29,0.037,163.0
2024-03-31T00:31:03,42.805,6.029,0.009,-0.047,-0.006,107.0,106.0,104.0,13.4,1505.2,4.2,-0.8,1.8,2471.746,13.29,0.047,169.2
2024-03-31T00:34:03,42.805,6.029,0.006,-0.051,0.027,107.0,106.0,103.0,13.3,1505.2,358.2,-0.8,1.8,2471.811,13.29,0.051,173.3
2024-03-31T00:37:03,42.805,6.029,0.025,-0.051,0.017,106.0,106.0,103.0,13.3,1505.2,355.9,-0.8,1.8,2471.779,13.29,0.056,153.9
2024-03-31T00:40:03,42.805,6.029,0.004,-0.049,-0.012,106.0,106.0,103.0,13.4,1505.2,5.4,-0.8,1.8,2471.786,13.29,0.049,175.3
2024-03-31T00:43:03,42.805,6.029,0.035,-0.03,0.014,106.0,105.0,103.0,13.3,1505.2,357.5,-0.8,1.8,2471.811,13.29,0.046,130.6
2024-03-31T00:46:03,42.805,6.029,0.007,-0.048,0.016,107.0,106.0,103.0,13.3,1505.2,0.5,-0.7,1.9,2471.788,13.29,0.048,171.7
2024-03-31T00:49:03,42.805,6.029,0.02,-0.033,0.015,106.0,105.0,104.0,13.4,1505.2,356.4,-0.8,1.8,2471.805,13.29,0.038,148.8
2024-03-31T00:52:03,42.805,6.029,0.005,-0.039,-0.009,106.0,106.0,103.0,13.4,1505.2,356.1,-0.7,1.8,2471.792,13.29,0.039,172.7
2024-03-31T00:55:03,42.805,6.029,0.013,-0.048,0.0,107.0,106.0,103.0,13.4,1505.2,2.4,-0.7,1.8,2471.814,13.29,0.049,164.8
2024-03-31T00:58:03,42.805,6.029,0.033,-0.032,0.014,107.0,107.0,103.0,13.4,1505.2,356.5,-0.7,1.8,2471.763,13.29,0.045,134.1
2024-03-31T01:04:03,42.805,6.029,0.024,-0.005,0.008,109.0,109.0,104.0,13.4,1505.2,356.8,-0.8,1.8,2471.815,13.29,0.024,101.8
2024-03-31T01:07:03,42.805,6.029,0.04,-0.044,-0.009,107.0,107.0,103.0,13.4,1505.2,355.2,-0.7,1.8,2471.807,13.29,0.059,137.7
2024-03-31T01:10:03,42.805,6.029,0.002,-0.027,-0.014,107.0,104.0,103.0,13.3,1505.2,2.8,-0.7,1.8,2471.788,13.29,0.027,175.8
2024-03-31T01:13:03,42.805,6.029,0.032,-0.053,0.027,106.0,106.0,103.0,13.4,1505.2,0.5,-0.8,1.8,2471.781,13.29,0.061,148.9
2024-03-31T01:16:03,42.805,6.029,0.024,-0.045,0.007,108.0,106.0,104.0,13.4,1505.2,356.5,-0.8,1.8,2471.827,13.29,0.051,151.9
2024-03-31T01:19:03,42.805,6.029,0.011,-0.012,0.017,107.0,106.0,103.0,13.4,1505.2,5.4,-0.8,1.8,2471.797,13.29,0.016,137.5
2024-03-31T01:22:03,42.805,6.029,-0.002,-0.042,0.023,107.0,105.0,103.0,13.4,1505.2,3.2,-0.7,1.8,2471.784,13.29,0.042,182.7
2024-03-31T01:25:03,42.805,6.029,0.019,-0.009,0.001,106.0,106.0,104.0,13.4,1505.2,350.9,-0.8,1.8,2471.778,13.29,0.021,115.3
2024-03-31T01:28:03,42.805,6.029,0.016,-0.043,0.02,107.0,105.0,104.0,13.3,1505.2,358.2,-0.8,1.8,2471.807,13.29,0.045,159.6
2024-03-31T01:31:03,42.805,6.029,0.009,-0.036,-0.007,107.0,106.0,103.0,13.4,1505.2,6.5,-0.7,1.8,2471.761,13.29,0.037,166.0
2024-03-31T01:34:03,42.805,6.029,0.039,-0.041,-0.005,106.0,105.0,104.0,13.3,1505.2,5.5,-0.7,1.8,2471.769,13.29,0.056,136.4
2024-03-31T01:37:03,42.805,6.029,0.004,-0.034,-0.003,108.0,107.0,104.0,13.4,1505.2,358.1,-0.8,1.8,2471.754,13.29,0.034,173.3
2024-03-31T01:40:03,42.805,6.029,0.019,-0.033,0.003,106.0,106.0,103.0,13.4,1505.2,356.5,-0.7,1.8,2471.778,13.29,0.038,150.1
2024-03-31T01:43:03,42.805,6.029,0.014,-0.027,0.013,107.0,106.0,103.0,13.3,1505.2,7.9,-0.7,1.8,2471.783,13.29,0.03,152.6
2024-03-31T01:46:03,42.805,6.029,0.009,-0.035,-0.004,108.0,106.0,103.0,13.3,1505.2,352.6,-0.8,1.8,2471.763,13.29,0.036,165.6
2024-03-31T01:49:03,42.805,6.029,0.03,-0.024,0.029,107.0,105.0,103.0,13.3,1505.2,5.1,-0.7,1.8,2471.758,13.29,0.038,128.7
2024-03-31T01:52:03,42.805,6.029,0.025,-0.033,0.022,105.0,107.0,103.0,13.4,1505.2,7.5,-0.8,1.8,2471.814,13.29,0.041,142.8
2024-03-31T01:55:03,42.805,6.029,0.028,-0.036,0.012,107.0,106.0,104.0,13.4,1505.2,350.9,-0.7,1.8,2471.769,13.29,0.045,142.1
2024-03-31T01:58:03,42.805,6.029,0.024,-0.018,-0.001,107.0,107.0,103.0,13.3,1505.2,0.0,-0.8,1.8,2471.745,13.29,0.03,126.9
2024-03-31T02:04:03,42.805,6.029,0.009,-0.046,-0.007,106.0,105.0,103.0,13.4,1505.2,1.8,-0.8,1.8,2471.788,13.29,0.046,168.9
2024-03-31T02:07:03,42.805,6.029,0.009,-0.05,-0.007,107.0,107.0,104.0,13.3,1505.2,357.1,-0.8,1.8,2471.774,13.29,0.05,169.8
2024-03-31T02:10:03,42.805,6.029,0.024,-0.018,0.038,107.0,107.0,102.0,13.4,1505.2,6.6,-0.8,1.8,2471.787,13.29,0.03,126.9
2024-03-31T02:13:04,42.805,6.029,0.018,-0.012,-0.002,106.0,106.0,103.0,13.4,1505.2,353.3,-0.8,1.8,2471.788,13.29,0.021,123.7
2024-03-31T02:16:03,42.805,6.029,0.021,-0.035,0.01,109.0,107.0,103.0,13.3,1505.2,8.2,-0.8,1.8,2471.744,13.29,0.04,149.0
2024-03-31T02:19:03,42.805,6.029,0.026,-0.049,0.011,107.0,108.0,104.0,13.3,1505.2,357.3,-0.7,1.8,2471.806,13.29,0.055,152.1
2024-03-31T02:22:03,42.805,6.029,0.016,-0.021,0.0,108.0,105.0,104.0,13.4,1505.2,3.4,-0.7,1.8,2471.756,13.29,0.026,142.7
2024-03-31T02:25:03,42.805,6.029,0.012,-0.047,0.037,107.0,106.0,103.0,13.3,1505.2,2.4,-0.8,1.8,2471.802,13.29,0.048,165.7
2024-03-31T02:28:03,42.805,6.029,0.017,-0.034,0.019,107.0,107.0,104.0,13.4,1505.2,357.8,-0.7,1.8,2471.754,13.29,0.038,153.4
2024-03-31T02:31:03,42.805,6.029,0.03,-0.033,0.02,107.0,106.0,104.0,13.4,1505.2,357.5,-0.8,1.8,2471.732,13.29,0.044,137.7
2024-03-31T02:34:03,42.805,6.029,0.021,-0.02,-0.001,107.0,106.0,103.0,13.3,1505.2,356.0,-0.8,1.8,2471.74,13.29,0.028,133.6
2024-03-31T02:37:03,42.805,6.029,0.018,-0.02,0.025,107.0,106.0,103.0,13.4,1505.2,4.9,-0.8,1.8,2471.759,13.29,0.026,138.0
2024-03-31T02:40:03,42.805,6.029,0.024,-0.046,-0.013,107.0,105.0,103.0,13.4,1505.2,358.2,-0.8,1.8,2471.746,13.29,0.051,152.4
2024-03-31T02:43:03,42.805,6.029,0.027,-0.035,-0.019,107.0,108.0,105.0,13.3,1505.2,0.0,-0.8,1.8,2471.737,13.29,0.044,142.3
2024-03-31T02:46:03,42.805,6.029,0.025,-0.065,-0.008,107.0,106.0,103.0,13.4,1505.2,355.5,-0.7,1.8,2471.734,13.29,0.069,159.0
2024-03-31T02:49:03,42.805,6.029,0.039,-0.03,0.024,106.0,107.0,103.0,13.3,1505.2,355.3,-0.7,1.8,2471.765,13.29,0.049,127.6
2024-03-31T02:52:03,42.805,6.029,0.026,-0.044,0.022,107.0,106.0,103.0,13.4,1505.2,8.7,-0.8,1.8,2471.758,13.29,0.051,149.4
2024-03-31T02:55:03,42.805,6.029,0.028,-0.021,-0.003,105.0,106.0,104.0,13.4,1505.2,351.4,-0.8,1.8,2471.757,13.29,0.035,126.9
2024-03-31T02:58:03,42.805,6.029,0.034,-0.032,0.014,108.0,106.0,104.0,13.4,1505.2,356.0,-0.8,1.8,2471.729,13.29,0.046,133.3
2024-03-31T03:04:03,42.805,6.029,0.035,-0.036,-0.001,106.0,106.0,104.0,13.3,1505.2,354.1,-0.8,1.8,2471.768,13.28,0.05,135.8
2024-03-31T03:07:03,42.805,6.029,0.021,-0.036,-0.03,107.0,106.0,103.0,13.4,1505.2,1.1,-0.7,1.8,2471.738,13.29,0.041,149.7
2024-03-31T03:10:03,42.805,6.029,0.018,-0.041,0.005,107.0,107.0,103.0,13.4,1505.2,5.2,-0.7,1.8,2471.73,13.29,0.044,156.3
2024-03-31T03:13:03,42.805,6.029,0.006,-0.042,0.003,107.0,107.0,103.0,13.3,1505.2,1.7,-0.8,1.8,2471.742,13.29,0.042,171.9
2024-03-31T03:16:03,42.805,6.029,0.028,-0.045,0.023,107.0,106.0,104.0,13.3,1505.2,2.1,-0.8,1.8,2471.741,13.29,0.053,148.1
2024-03-31T03:19:03,42.805,6.029,0.033,-0.054,-0.004,107.0,107.0,104.0,13.4,1505.2,359.4,-0.8,1.8,2471.761,13.29,0.063,148.6
2024-03-31T03:22:03,42.805,6.029,0.016,-0.035,0.017,106.0,107.0,102.0,13.4,1505.2,356.9,-0.8,1.8,2471.724,13.29,0.038,155.4
2024-03-31T03:25:03,42.805,6.029,0.037,-0.045,0.007,106.0,107.0,104.0,13.3,1505.2,353.9,-0.7,1.8,2471.73,13.29,0.058,140.6
2024-03-31T03:28:03,42.805,6.029,0.016,-0.045,0.01,107.0,108.0,102.0,13.4,1505.2,3.6,-0.8,1.8,2471.785,13.29,0.047,160.4
2024-03-31T03:31:03,42.805,6.029,0.037,-0.047,-0.003,107.0,106.0,103.0,13.4,1505.2,355.9,-0.8,1.8,2471.738,13.29,0.059,141.8
2024-03-31T03:34:03,42.805,6.029,0.022,-0.036,0.011,106.0,106.0,103.0,13.4,1505.2,7.7,-0.8,1.8,2471.742,13.29,0.042,148.6
2024-03-31T03:37:03,42.805,6.029,0.027,-0.049,0.0,106.0,106.0,103.0,13.4,1505.2,355.7,-0.8,1.8,2471.712,13.29,0.055,151.1
2024-03-31T03:40:03,42.805,6.029,0.021,-0.037,-0.023,106.0,106.0,104.0,13.4,1505.2,356.3,-0.7,1.8,2471.741,13.29,0.042,150.4
2024-03-31T03:43:03,42.805,6.029,0.011,-0.053,0.001,107.0,106.0,103.0,13.4,1505.2,8.2,-0.7,1.8,2471.7,13.29,0.054,168.3
2024-03-31T03:46:03,42.805,6.029,0.025,-0.028,0.012,107.0,105.0,103.0,13.3,1505.2,356.6,-0.7,1.8,2471.729,13.29,0.037,138.2
2024-03-31T03:49:03,42.805,6.029,0.028,-0.015,0.009,106.0,105.0,104.0,13.4,1505.2,4.7,-0.7,1.8,2471.725,13.29,0.031,118.2
2024-03-31T03:52:03,42.805,6.029,0.022,-0.049,-0.013,107.0,107.0,104.0,13.4,1505.2,355.8,-0.7,1.8,2471.713,13.29,0.053,155.8
2024-03-31T03:55:03,42.805,6.029,0.033,-0.046,0.007,107.0,106.0,103.0,13.3,1505.2,0.0,-0.8,1.8,2471.711,13.29,0.056,144.3
2024-03-31T03:58:03,42.805,6.029,0.032,-0.033,0.029,106.0,107.0,105.0,13.4,1505.2,2.8,-0.8,1.8,2471.723,13.29,0.045,135.9
2024-03-31T04:04:03,42.805,6.029,0.006,-0.05,-0.007,106.0,106.0,103.0,13.3,1505.2,4.8,-0.8,1.8,2471.752,13.28,0.05,173.2
2024-03-31T04:07:03,42.805,6.029,0.021,-0.052,0.022,108.0,106.0,103.0,13.4,1505.2,7.1,-0.8,1.8,2471.758,13.29,0.056,158.0
2024-03-31T04:10:03,42.805,6.029,0.038,-0.065,0.038,105.0,106.0,104.0,13.4,1505.2,358.7,-0.8,1.8,2471.773,13.29,0.075,149.7
2024-03-31T04:13:03,42.805,6.029,0.029,-0.052,0.003,107.0,107.0,104.0,13.4,1505.2,1.2,-0.8,1.8,2471.7,13.29,0.059,150.9
2024-03-31T04:16:03,42.805,6.029,0.036,-0.055,0.027,106.0,105.0,104.0,13.4,1505.2,4.3,-0.8,1.8,2471.753,13.29,0.065,146.8
2024-03-31T04:19:03,42.805,6.029,0.039,-0.041,0.012,106.0,105.0,103.0,13.3,1505.2,350.7,-0.8,1.8,2471.724,13.29,0.056,136.4
2024-03-31T04:22:03,42.805,6.029,0.026,-0.041,0.021,106.0,107.0,103.0,13.4,1505.2,357.7,-0.7,1.8,2471.763,13.29,0.048,147.6
2024-03-31T04:25:03,42.805,6.029,0.028,-0.05,0.001,106.0,106.0,103.0,13.4,1505.2,0.6,-0.7,1.8,2471.706,13.29,0.057,150.7
2024-03-31T04:28:03,42.805,6.029,0.023,-0.055,0.007,105.0,106.0,104.0,13.4,1505.2,2.7,-0.8,1.8,2471.726,13.29,0.059,157.3
2024-03-31T04:31:03,42.805,6.029,0.038,-0.055,0.011,105.0,105.0,103.0,13.4,1505.2,1.8,-0.8,1.8,2471.68,13.29,0.066,145.4
2024-03-31T04:34:03,42.805,6.029,0.006,-0.026,0.035,106.0,105.0,102.0,13.4,1505.2,8.8,-0.8,1.9,2471.725,13.29,0.026,167.0
2024-03-31T04:37:03,42.805,6.029,0.013,-0.059,-0.003,107.0,106.0,102.0,13.4,1505.2,7.8,-0.8,1.8,2471.742,13.29,0.06,167.6
2024-03-31T04:40:03,42.805,6.029,0.042,-0.053,0.005,107.0,106.0,103.0,13.3,1505.2,353.5,-0.8,1.8,2471.713,13.29,0.067,141.6
2024-03-31T04:43:03,42.805,6.029,0.013,-0.044,-0.01,105.0,104.0,103.0,13.3,1505.2,4.8,-0.8,1.8,2471.721,13.29,0.045,163.5
2024-03-31T04:46:03,42.805,6.029,-0.001,-0.037,0.024,106.0,105.0,103.0,13.4,1505.2,8.7,-0.7,1.8,2471.685,13.29,0.037,181.5
2024-03-31T04:49:03,42.805,6.029,0.05,-0.019,0.032,106.0,104.0,103.0,13.3,1505.2,352.4,-0.8,1.8,2471.697,13.29,0.053,110.8
2024-03-31T04:52:03,42.805,6.029,0.019,-0.053,0.027,106.0,107.0,102.0,13.4,1505.2,4.8,-0.8,1.9,2471.755,13.29,0.056,160.3
2024-03-31T04:55:03,42.805,6.029,0.02,-0.078,0.001,106.0,106.0,104.0,13.3,1505.2,8.1,-0.7,1.8,2471.748,13.29,0.08,165.6
2024-03-31T04:58:03,42.805,6.029,0.056,-0.051,0.009,105.0,106.0,104.0,13.4,1505.2,352.7,-0.8,1.8,2471.733,13.29,0.075,132.3
2024-03-31T05:04:03,42.805,6.029,0.008,-0.05,-0.025,107.0,106.0,103.0,13.4,1505.2,9.3,-0.7,1.8,2471.772,13.28,0.05,170.9
2024-03-31T05:07:03,42.805,6.029,-0.003,-0.046,-0.01,107.0,105.0,104.0,13.3,1505.2,353.4,-0.8,1.8,2471.727,13.29,0.046,183.7
2024-03-31T05:10:03,42.805,6.029,0.027,-0.047,0.025,107.0,106.0,103.0,13.3,1505.2,4.8,-0.8,1.8,2471.764,13.29,0.054,150.1
2024-03-31T05:13:03,42.805,6.029,0.009,-0.057,0.031,106.0,106.0,103.0,13.4,1505.2,9.2,-0.8,1.8,2471.68,13.29,0.057,171.0
2024-03-31T05:16:03,42.805,6.029,0.016,-0.053,0.016,106.0,106.0,103.0,13.3,1505.2,6.8,-0.8,1.8,2471.742,13.29,0.055,163.2
2024-03-31T05:19:03,42.805,6.029,0.04,-0.034,0.014,105.0,105.0,104.0,13.3,1505.2,351.1,-0.7,1.8,2471.735,13.29,0.052,130.4
2024-03-31T05:22:03,42.805,6.029,0.026,-0.042,0.001,106.0,105.0,103.0,13.4,1505.2,358.7,-0.7,1.8,2471.719,13.29,0.049,148.2
2024-03-31T05:25:03,42.805,6.029,0.026,-0.052,-0.02,107.0,106.0,104.0,13.3,1505.2,357.7,-0.7,1.8,2471.714,13.29,0.058,153.4
2024-03-31T05:28:03,42.805,6.029,0.017,-0.04,-0.022,106.0,106.0,103.0,13.4,1505.2,5.5,-0.8,1.8,2471.745,13.29,0.043,157.0
2024-03-31T05:31:03,42.805,6.029,0.037,-0.046,0.009,107.0,106.0,103.0,13.3,1505.2,354.4,-0.7,1.8,2471.761,13.29,0.059,141.2
2024-03-31T05:34:03,42.805,6.029,0.04,-0.041,0.024,105.0,107.0,104.0,13.4,1505.2,354.9,-0.8,1.8,2471.739,13.29,0.057,135.7
2024-03-31T05:37:03,42.805,6.029,0.042,-0.026,0.0,107.0,105.0,104.0,13.4,1505.2,357.0,-0.7,1.8,2471.689,13.29,0.049,121.8
2024-03-31T05:40:03,42.805,6.029,0.017,-0.057,0.005,106.0,106.0,103.0,13.4,1505.2,358.7,-0.7,1.8,2471.702,13.29,0.059,163.4
2024-03-31T05:43:03,42.805,6.029,0.033,-0.038,-0.001,108.0,105.0,103.0,13.3,1505.2,4.4,-0.7,1.8,2471.733,13.29,0.05,139.0
2024-03-31T05:46:03,42.805,6.029,0.026,-0.05,-0.012,106.0,105.0,104.0,13.4,1505.2,353.9,-0.8,1.8,2471.725,13.29,0.056,152.5
2024-03-31T05:49:03,42.805,6.029,0.04,-0.048,0.007,106.0,106.0,103.0,13.4,1505.2,1.8,-0.8,1.8,2471.724,13.29,0.062,140.2
2024-03-31T05:52:03,42.805,6.029,0.037,-0.052,0.03,108.0,105.0,104.0,13.3,1505.2,359.4,-0.7,1.8,2471.717,13.29,0.063,144.6
2024-03-31T05:55:03,42.805,6.029,0.015,-0.046,0.022,106.0,106.0,102.0,13.4,1505.2,1.8,-0.7,1.8,2471.728,13.29,0.048,161.9
2024-03-31T05:58:03,42.805,6.029,0.029,-0.069,0.013,106.0,105.0,103.0,13.4,1505.2,4.2,-0.7,1.8,2471.708,13.29,0.074,157.2
2024-03-31T06:04:03,42.805,6.029,0.008,-0.049,0.025,106.0,106.0,103.0,13.4,1505.2,4.1,-0.8,1.8,2471.774,13.28,0.049,170.7
2024-03-31T06:07:03,42.805,6.029,0.035,-0.052,0.002,107.0,105.0,102.0,13.4,1505.2,357.6,-0.8,1.8,2471.71,13.29,0.062,146.1
2024-03-31T06:10:03,42.805,6.029,0.047,-0.044,0.023,106.0,105.0,103.0,13.3,1505.2,3.6,-0.8,1.8,2471.735,13.29,0.064,133.1
2024-03-31T06:13:03,42.805,6.029,0.033,-0.036,0.029,107.0,106.0,102.0,13.4,1505.2,351.1,-0.8,1.8,2471.724,13.29,0.048,137.5
2024-03-31T06:16:04,42.805,6.029,0.021,-0.053,0.012,107.0,105.0,104.0,13.4,1505.2,351.6,-0.8,1.8,2471.746,13.29,0.057,158.4
2024-03-31T06:19:03,42.805,6.029,0.041,-0.04,0.021,107.0,105.0,105.0,13.3,1505.2,356.5,-0.8,1.8,2471.751,13.29,0.057,134.3
2024-03-31T06:22:03,42.805,6.029,0.027,-0.057,0.002,105.0,105.0,103.0,13.3,1505.2,6.9,-0.7,1.8,2471.733,13.29,0.063,154.7
2024-03-31T06:25:03,42.805,6.029,0.024,-0.053,-0.006,108.0,105.0,103.0,13.4,1505.2,0.6,-0.8,1.8,2471.719,13.29,0.058,155.6
2024-03-31T06:28:03,42.805,6.029,0.025,-0.065,0.0,107.0,107.0,103.0,13.4,1505.2,357.0,-0.7,1.8,2471.714,13.29,0.069,159.0
2024-03-31T06:31:03,42.805,6.029,0.037,-0.065,-0.001,107.0,106.0,103.0,13.4,1505.2,7.8,-0.8,1.8,2471.729,13.29,0.074,150.3
2024-03-31T06:34:03,42.805,6.029,0.031,-0.057,-0.015,106.0,106.0,104.0,13.3,1505.2,351.0,-0.8,1.8,2471.707,13.29,0.064,151.5
2024-03-31T06:37:03,42.805,6.029,0.015,-0.06,-0.003,107.0,105.0,103.0,13.3,1505.2,0.5,-0.7,1.8,2471.741,13.29,0.061,166.0
2024-03-31T06:40:03,42.805,6.029,0.008,-0.039,0.034,107.0,105.0,103.0,13.4,1505.2,8.7,-0.7,1.8,2471.698,13.29,0.039,168.4
2024-03-31T06:43:03,42.805,6.029,0.008,-0.06,0.008,107.0,106.0,104.0,13.4,1505.2,353.8,-0.8,1.8,2471.754,13.29,0.06,172.4
2024-03-31T06:46:03,42.805,6.029,0.012,-0.053,-0.008,106.0,106.0,104.0,13.4,1505.2,1.8,-0.8,1.8,2471.702,13.29,0.054,167.2
2024-03-31T06:49:03,42.805,6.029,0.026,-0.071,0.035,106.0,106.0,103.0,13.3,1505.2,358.7,-0.7,1.8,2471.731,13.29,0.075,159.9
2024-03-31T06:52:03,42.805,6.029,0.042,-0.047,-0.012,107.0,106.0,104.0,13.4,1505.2,353.7,-0.8,1.8,2471.712,13.29,0.063,138.2
2024-03-31T06:55:03,42.805,6.029,0.019,-0.038,0.009,105.0,106.0,103.0,13.4,1505.2,359.3,-0.8,1.8,2471.743,13.29,0.042,153.4
2024-03-31T06:58:03,42.805,6.029,0.031,-0.065,0.01,106.0,106.0,104.0,13.4,1505.2,357.7,-0.7,1.8,2471.746,13.29,0.072,154.5
2024-03-31T07:04:03,42.805,6.029,0.026,-0.051,-0.002,105.0,106.0,103.0,13.4,1505.2,355.5,-0.8,1.8,2471.753,13.28,0.057,153.0
2024-03-31T07:07:03,42.805,6.029,0.023,-0.059,0.004,107.0,106.0,103.0,13.3,1505.2,357.1,-0.8,1.8,2471.719,13.29,0.063,158.7
2024-03-31T07:10:03,42.805,6.029,0.026,-0.048,0.025,106.0,106.0,104.0,13.4,1505.2,8.2,-0.8,1.8,2471.77,13.29,0.054,151.6
2024-03-31T07:13:03,42.805,6.029,0.026,-0.038,0.001,107.0,107.0,102.0,13.3,1505.2,354.4,-0.7,1.8,2471.738,13.29,0.046,145.6
2024-03-31T07:16:03,42.805,6.029,0.025,-0.042,0.021,106.0,106.0,103.0,13.3,1505.2,356.5,-0.7,1.8,2471.76,13.29,0.048,149.2
2024-03-31T07:19:03,42.805,6.029,0.0,-0.045,0.002,106.0,107.0,103.0,13.4,1505.2,4.4,-0.7,1.8,2471.763,13.29,0.045,180.0
2024-03-31T07:22:03,42.805,6.029,0.012,-0.063,-0.001,107.0,107.0,104.0,13.4,1505.2,5.1,-0.8,1.8,2471.766,13.29,0.064,169.2
2024-03-31T07:25:03,42.805,6.029,0.015,-0.058,0.028,107.0,107.0,103.0,13.4,1505.2,2.9,-0.8,1.8,2471.715,13.29,0.059,165.5
2024-03-31T07:28:03,42.805,6.029,0.026,-0.03,-0.021,107.0,106.0,103.0,13.3,1505.2,355.0,-0.7,1.8,2471.737,13.29,0.039,139.1
2024-03-31T07:31:03,42.805,6.029,0.018,-0.032,-0.003,106.0,105.0,103.0,13.4,1505.2,3.6,-0.7,1.8,2471.763,13.29,0.036,150.6
2024-03-31T07:34:03,42.805,6.029,0.047,-0.052,0.0,106.0,106.0,103.0,13.4,1505.2,356.9,-0.8,1.8,2471.811,13.29,0.07,137.9
2024-03-31T07:37:03,42.805,6.029,0.033,-0.073,0.006,107.0,106.0,104.0,13.4,1505.2,0.0,-0.8,1.8,2471.76,13.29,0.08,155.7
2024-03-31T07:40:03,42.805,6.029,0.046,-0.067,0.0,106.0,105.0,103.0,13.4,1505.2,356.9,-0.8,1.8,2471.77,13.29,0.081,145.5
2024-03-31T07:43:03,42.805,6.029,0.026,-0.044,-0.002,106.0,105.0,103.0,13.3,1505.2,0.0,-0.7,1.8,2471.743,13.29,0.051,149.4
2024-03-31T07:46:03,42.805,6.029,0.035,-0.052,-0.002,106.0,106.0,103.0,13.3,1505.2,350.2,-0.8,1.8,2471.763,13.29,0.062,146.1
2024-03-31T07:49:03,42.805,6.029,0.019,-0.057,-0.019,107.0,106.0,103.0,13.3,1505.2,1.1,-0.8,1.8,2471.75,13.29,0.06,161.6
2024-03-31T07:52:03,42.805,6.029,0.015,-0.067,0.021,106.0,105.0,103.0,13.3,1505.2,6.6,-0.7,1.8,2471.735,13.29,0.068,167.4
2024-03-31T07:55:03,42.805,6.029,0.043,-0.061,-0.01,106.0,105.0,103.0,13.4,1505.2,3.5,-0.8,1.8,2471.719,13.29,0.074,144.8
2024-03-31T07:58:03,42.805,6.029,0.037,-0.051,0.002,106.0,105.0,102.0,13.3,1505.2,355.7,-0.8,1.8,2471.793,13.29,0.063,144.0
2024-03-31T08:04:03,42.805,6.029,0.044,-0.029,0.012,106.0,105.0,102.0,13.4,1505.2,352.8,-0.7,1.8,2471.74,13.28,0.052,123.4
2024-03-31T08:07:03,42.805,6.029,0.025,-0.07,0.021,107.0,106.0,103.0,13.4,1505.2,355.9,-0.8,1.8,2471.772,13.29,0.074,160.4
2024-03-31T08:10:03,42.805,6.029,0.004,-0.065,0.0,105.0,104.0,103.0,13.3,1505.2,8.2,-0.8,1.8,2471.798,13.29,0.065,176.5
2024-03-31T08:13:03,42.805,6.029,0.03,-0.078,-0.011,106.0,106.0,103.0,13.3,1505.2,355.5,-0.7,1.8,2471.806,13.29,0.083,159.0
2024-03-31T08:16:03,42.805,6.029,0.025,-0.069,0.007,106.0,106.0,103.0,13.4,1505.2,5.3,-0.8,1.8,2471.813,13.29,0.073,160.1
2024-03-31T08:19:03,42.805,6.029,0.024,-0.052,0.001,106.0,105.0,103.0,13.4,1505.2,8.3,-0.8,1.8,2471.781,13.29,0.057,155.2
2024-03-31T08:22:03,42.805,6.029,0.022,-0.068,0.022,105.0,105.0,103.0,13.4,1505.2,356.0,-0.7,1.8,2471.767,13.29,0.071,162.1
2024-03-31T08:25:03,42.805,6.029,0.03,-0.056,0.03,105.0,105.0,103.0,13.4,1505.2,3.6,-0.7,1.8,2471.762,13.29,0.063,151.8
2024-03-31T08:28:03,42.805,6.029,0.013,-0.067,0.027,105.0,105.0,102.0,13.4,1505.2,356.0,-0.8,1.8,2471.79,13.29,0.068,169.0
2024-03-31T08:31:03,42.805,6.029,0.029,-0.069,0.007,105.0,105.0,104.0,13.3,1505.2,9.2,-0.7,1.8,2471.736,13.29,0.074,157.2
2024-03-31T08:34:03,42.805,6.029,0.023,-0.063,0.009,106.0,105.0,104.0,13.3,1505.2,8.1,-0.8,1.8,2471.762,13.29,0.067,159.9
2024-03-31T08:37:03,42.805,6.029,0.025,-0.044,0.003,106.0,106.0,102.0,13.4,1505.2,352.1,-0.7,1.8,2471.768,13.29,0.05,150.4
2024-03-31T08:40:03,42.805,6.029,0.042,-0.052,-0.006,105.0,105.0,104.0,13.4,1505.2,357.1,-0.8,1.8,2471.787,13.29,0.066,141.1
2024-03-31T08:43:03,42.805,6.029,0.02,-0.059,-0.016,105.0,106.0,102.0,13.4,1505.2,9.2,-0.7,1.8,2471.785,13.29,0.062,161.3
2024-03-31T08:46:03,42.805,6.029,0.041,-0.051,0.029,107.0,105.0,102.0,13.4,1505.2,352.5,-0.7,1.8,2471.824,13.29,0.065,141.2
2024-03-31T08:49:03,42.805,6.029,0.026,-0.057,0.009,105.0,106.0,102.0,13.4,1505.2,359.3,-0.7,1.8,2471.772,13.29,0.062,155.5
2024-03-31T08:52:03,42.805,6.029,0.02,-0.045,0.02,106.0,106.0,102.0,13.4,1505.2,2.8,-0.7,1.8,2471.796,13.29,0.049,156.0
2024-03-31T08:55:03,42.805,6.029,0.034,-0.043,0.001,106.0,106.0,102.0,13.4,1505.2,357.6,-0.7,1.8,2471.816,13.29,0.054,141.7
2024-03-31T08:58:03,42.805,6.029,0.023,-0.063,0.012,105.0,105.0,103.0,13.3,1505.2,5.6,-0.7,1.8,2471.792,13.29,0.067,159.9
2024-03-31T09:04:03,42.805,6.029,0.028,-0.071,0.006,106.0,105.0,103.0,13.3,1505.2,3.1,-0.7,1.8,2471.791,13.28,0.076,158.5
2024-03-31T09:07:03,42.805,6.029,0.025,-0.064,0.002,105.0,105.0,103.0,13.4,1505.2,3.6,-0.8,1.8,2471.825,13.29,0.068,158.7
2024-03-31T09:10:03,42.805,6.029,0.03,-0.058,0.034,105.0,106.0,103.0,13.3,1505.2,359.4,-0.8,1.8,2471.828,13.29,0.065,152.6
2024-03-31T09:13:03,42.805,6.029,0.015,-0.058,0.017,105.0,104.0,103.0,13.4,1505.2,2.1,-0.8,1.8,2471.821,13.29,0.059,165.5
2024-03-31T09:16:03,42.805,6.029,0.02,-0.056,0.012,107.0,105.0,102.0,13.4,1505.2,1.2,-0.7,1.8,2471.821,13.29,0.059,160.4
2024-03-31T09:19:03,42.805,6.029,0.021,-0.065,0.006,105.0,105.0,103.0,13.4,1505.2,5.5,-0.8,1.8,2471.84,13.29,0.068,162.1
2024-03-31T09:22:03,42.805,6.029,0.035,-0.07,0.014,106.0,105.0,103.0,13.4,1505.2,351.8,-0.8,1.8,2471.8,13.29,0.078,153.4
2024-03-31T09:25:03,42.805,6.029,0.031,-0.071,0.013,105.0,105.0,103.0,13.4,1505.2,355.3,-0.7,1.8,2471.828,13.29,0.077,156.4
2024-03-31T09:28:03,42.805,6.029,0.028,-0.053,0.014,105.0,105.0,103.0,13.3,1505.2,358.3,-0.8,1.8,2471.801,13.29,0.059,152.1
2024-03-31T09:31:03,42.805,6.029,0.042,-0.063,0.003,106.0,106.0,103.0,13.4,1505.2,356.2,-0.8,1.8,2471.793,13.29,0.075,146.3
2024-03-31T09:34:03,42.805,6.029,0.018,-0.028,0.016,106.0,106.0,103.0,13.4,1505.2,0.0,-0.8,1.8,2471.794,13.29,0.033,147.3
2024-03-31T09:37:03,42.805,6.029,0.013,-0.064,0.0,105.0,106.0,103.0,13.4,1505.2,6.6,-0.8,1.8,2471.823,13.29,0.065,168.5
2024-03-31T09:40:03,42.805,6.029,0.02,-0.069,0.007,106.0,105.0,103.0,13.4,1505.2,7.3,-0.8,1.8,2471.795,13.29,0.071,163.8
2024-03-31T09:43:03,42.805,6.029,0.023,-0.068,-0.006,107.0,106.0,104.0,13.4,1505.2,2.7,-0.7,1.9,2471.829,13.29,0.071,161.3
2024-03-31T09:46:03,42.805,6.029,0.033,-0.051,0.007,106.0,106.0,102.0,13.3,1505.2,352.0,-0.8,1.8,2471.816,13.29,0.06,147.1
2024-03-31T09:49:03,42.805,6.029,0.009,-0.061,-0.02,106.0,106.0,103.0,13.4,1505.2,3.0,-0.7,1.8,2471.811,13.29,0.061,171.6
2024-03-31T09:52:03,42.805,6.029,0.003,-0.032,-0.025,106.0,105.0,103.0,13.4,1505.2,7.7,-0.7,1.8,2471.802,13.29,0.032,174.6
2024-03-31T09:55:03,42.805,6.029,0.0,-0.07,0.002,106.0,106.0,102.0,13.4,1505.2,8.3,-0.8,1.8,2471.838,13.29,0.069,180.0
2024-03-31T09:58:03,42.805,6.029,0.042,-0.041,0.002,106.0,105.0,103.0,13.4,1505.2,356.3,-0.8,1.8,2471.807,13.29,0.058,134.3
2024-03-31T10:04:03,42.805,6.029,0.013,-0.032,0.012,106.0,105.0,102.0,13.4,1505.2,1.0,-0.8,1.8,2471.879,13.28,0.034,157.9